Weather History for KESN - January, 2014

Change the Weather History Date:

Monday, January 13, 2014

  Actual Average Record
Temperature  
Mean Temperature 44 °F -  
Max Temperature 57 °F 41 °F 62 °F (2006)
Min Temperature 32 °F 22 °F 10 °F (1958)
Degree Days  
Heating Degree Days 20    
Moisture  
Dew Point 35 °F    
Average Humidity 82    
Maximum Humidity 100    
Minimum Humidity 48    
Precipitation  
Precipitation 0.00 in - - ()
Sea Level Pressure  
Sea Level Pressure 30.10 in    
Wind  
Wind Speed 3 mph (South)    
Max Wind Speed 15 mph    
Max Gust Speed 23 mph    
Visibility 10 miles    
Events      
Averages and records for this station are not official NWS values.
T = Trace of Precipitation, MM = Missing Value Source: NWS Daily Summary

Daily Weather History Graph

Daily Weather History Graph

Search for Another Location

Airport or City:

Trip Planner

Search our weather history database for the weather conditions in past years. The results will help you decide how hot, cold, wet, or windy it might be!

Date:

Astronomy

Jan. 13, 2014 Rise Set
Actual Time 7:21 AM EST 5:04 PM EST
Civil Twilight 6:52 AM EST 5:33 PM EST
Nautical Twilight 6:19 AM EST 6:06 PM EST
Astronomical Twilight 5:47 AM EST 6:38 PM EST
Moon 3:17 PM EST (1/13) 5:08 AM EST (1/13)
Length of Visible Light 10h 41m
Length of Day
9h 42m
Waxing Gibbous, 95% of the Moon is Illuminated
Jan 13
Waxing Gibbous
Jan 15
Full
Jan 24
Last Quarter
Jan 30
New
Feb 6
First Quarter

Hourly Weather History & Observations

Time (EST) Temp. Windchill Dew Point Humidity Pressure Visibility Wind Dir Wind Speed Gust Speed Precip Events Conditions
12:09 AM 34.3 °F - 32.4 °F 92% 30.16 in 10.0 mi Calm Calm - N/A   Clear
12:29 AM 33.3 °F - 32.0 °F 95% 30.15 in 10.0 mi Calm Calm - N/A   Clear
12:50 AM 33.8 °F - 33.8 °F 100% 30.15 in 10.0 mi Calm Calm - N/A   Clear
1:10 AM 32.9 °F - 32.9 °F 100% 30.16 in 10.0 mi Calm Calm - N/A   Clear
1:30 AM 33.1 °F - 33.1 °F 100% 30.16 in 10.0 mi Calm Calm - N/A   Clear
1:50 AM 32.9 °F - 32.9 °F 100% 30.16 in 10.0 mi Calm Calm - N/A   Clear
2:10 AM 32.0 °F - 32.0 °F 100% 30.16 in 10.0 mi Calm Calm - N/A   Clear
2:30 AM 33.3 °F - 32.0 °F 95% 30.16 in 10.0 mi Calm Calm - N/A   Clear
2:50 AM 32.5 °F - 31.6 °F 96% 30.16 in 10.0 mi Calm Calm - N/A   Clear
3:10 AM 32.4 °F - 32.4 °F 100% 30.16 in 10.0 mi Calm Calm - N/A   Clear
3:30 AM 32.0 °F 28.7 °F 32.0 °F 100% 30.16 in 10.0 mi SSE 3.5 mph - N/A   Clear
3:50 AM 34.3 °F 31.4 °F 34.3 °F 100% 30.15 in 10.0 mi SSE 3.5 mph - N/A   Clear
4:10 AM 33.1 °F 30.0 °F 33.1 °F 100% 30.15 in 10.0 mi SSE 3.5 mph - N/A   Clear
4:30 AM 33.8 °F - 33.8 °F 100% 30.15 in 10.0 mi Calm Calm - N/A   Clear
4:50 AM 33.3 °F - 33.3 °F 100% 30.15 in 10.0 mi Calm Calm - N/A   Clear
5:10 AM 34.2 °F - 34.2 °F 100% 30.15 in 10.0 mi Calm Calm - N/A   Clear
5:22 AM 32.0 °F 27.5 °F 32.0 °F 100% 30.15 in 10.0 mi SSE 4.6 mph - N/A   Clear
5:45 AM 33.8 °F - 33.8 °F 100% 30.15 in 7.0 mi Calm Calm - N/A   Clear
6:50 AM 35.6 °F 32.8 °F 35.6 °F 100% 30.16 in 10.0 mi South 3.5 mph - N/A   Clear
12:46 PM 57.2 °F - 39.2 °F 51% 30.05 in 10.0 mi SSW 15.0 mph 21.9 mph N/A   Mostly Cloudy
1:50 PM 57.2 °F - 37.4 °F 48% 30.03 in 10.0 mi SSW 15.0 mph 23.0 mph N/A   Scattered Clouds
2:50 PM 57.2 °F - 39.2 °F 51% 30.02 in 10.0 mi South 12.7 mph 20.7 mph N/A   Mostly Cloudy
3:52 PM 55.4 °F - 37.4 °F 51% 30.01 in 10.0 mi South 12.7 mph - N/A   Mostly Cloudy
4:49 PM 53.6 °F - 37.4 °F 54% 30.03 in 10.0 mi South 12.7 mph 18.4 mph N/A   Mostly Cloudy
5:50 PM 53.6 °F - 37.4 °F 54% 30.01 in 10.0 mi South 12.7 mph - N/A   Overcast
6:53 PM 51.8 °F - 37.4 °F 58% 29.99 in 10.0 mi South 10.4 mph 16.1 mph N/A   Overcast
7:50 PM 53.6 °F - 37.4 °F 54% 29.99 in 10.0 mi South 9.2 mph - N/A   Overcast
8:53 PM 50.0 °F - 39.2 °F 66% 29.99 in 10.0 mi South 8.1 mph - N/A   Overcast
9:32 PM 51.4 °F - 39.2 °F 63% 29.99 in 10.0 mi SSW 11.5 mph - N/A   Clear
9:52 PM 51.3 °F - 39.6 °F 64% 29.99 in 10.0 mi SSW 8.1 mph 16.1 mph N/A   Clear
11:52 PM 52.3 °F - 39.9 °F 63% 29.95 in 10.0 mi SW 12.7 mph - N/A   Clear